Dades meteomassalio
Diari Summary for Abril 17, 2017 Units:  Metric    English   Both
« Previous Day
Next Day »
Diari Semanal Mensual Anual Personalitzat
  Maxima: Minima: Mijana:
Temperatura: 25.8 °C 5.6 °C 16 °C
Rosada: 13.2 °C 2.4 °C 6.6 °C
Humitat: 81 % 28 % 57 %
Velocitat del vent: 14.8 km/h 0.0 km/h 3 km/h
Racha vent: 14.8 km/h - -
Vent:- - East
Pressio: 1020.2 hPa 1014.1 hPa -
Pluja: 0.0 mm    
Historical Graphs
 
 
Tabular Data for Abril 17, 2017
Time Temperature Dew Point Pressure Wind Wind Speed Wind Gust Humidity Rainfall Rate (Hourly) solar Conditions
00:04 11.6 °C 4.5 °C 1019.9 hPa Calm     62 % 0.0 mm 0.0 W/m2 CLR
00:09 11.5 °C 4.4 °C 1019.9 hPa Calm     62 % 0.0 mm 0.0 W/m2 CLR
00:14 11.4 °C 4.7 °C 1019.9 hPa Calm     63 % 0.0 mm 0.0 W/m2 CLR
00:19 11.4 °C 4.6 °C 1019.9 hPa Calm     63 % 0.0 mm 0.0 W/m2 CLR
00:24 11.3 °C 4.6 °C 1019.9 hPa SSW 1.9 km/h   63 % 0.0 mm 0.0 W/m2 CLR
00:29 11.2 °C 4.4 °C 1019.9 hPa Calm     63 % 0.0 mm 0.0 W/m2 CLR
00:34 11.1 °C 4.6 °C 1019.9 hPa Calm     64 % 0.0 mm 0.0 W/m2 CLR
00:39 11.1 °C 4.5 °C 1019.9 hPa Calm     64 % 0.0 mm 0.0 W/m2 CLR
00:44 11.0 °C 4.4 °C 1019.9 hPa Calm     64 % 0.0 mm 0.0 W/m2 CLR
00:49 10.9 °C 4.6 °C 1019.9 hPa WSW 5.6 km/h 5.6 km/h 65 % 0.0 mm 0.0 W/m2 CLR
00:54 10.9 °C 4.3 °C 1019.9 hPa Calm     64 % 0.0 mm 0.0 W/m2 CLR
00:59 10.9 °C 4.3 °C 1020.2 hPa Calm     64 % 0.0 mm 0.0 W/m2 CLR
01:04 10.9 °C 4.3 °C 1020.2 hPa Calm     64 % 0.0 mm 0.0 W/m2 CLR
01:09 10.7 °C 4.4 °C 1020.2 hPa Calm     65 % 0.0 mm 0.0 W/m2 CLR
01:14 10.6 °C 4.2 °C 1020.2 hPa Calm     65 % 0.0 mm 0.0 W/m2 CLR
01:19 10.4 °C 4.3 °C 1020.2 hPa Calm     66 % 0.0 mm 0.0 W/m2 CLR
01:29 10.3 °C 4.3 °C 1020.2 hPa Calm     66 % 0.0 mm 0.0 W/m2 CLR
01:34 10.2 °C 4.4 °C 1020.2 hPa Calm     67 % 0.0 mm 0.0 W/m2 CLR
01:39 10.1 °C 4.3 °C 1020.2 hPa Calm     67 % 0.0 mm 0.0 W/m2 CLR
01:45 9.9 °C 4.3 °C 1020.2 hPa Calm     68 % 0.0 mm 0.0 W/m2 CLR
01:50 9.8 °C 4.2 °C 1020.2 hPa Calm     68 % 0.0 mm 0.0 W/m2 CLR
01:55 9.6 °C 4.2 °C 1020.2 hPa WSW 3.7 km/h 3.7 km/h 69 % 0.0 mm 0.0 W/m2 CLR
02:00 9.5 °C 4.1 °C 1020.2 hPa WSW 5.6 km/h 5.6 km/h 69 % 0.0 mm 0.0 W/m2 CLR
02:05 9.6 °C 4.0 °C 1020.2 hPa SW 3.7 km/h   68 % 0.0 mm 0.0 W/m2 CLR
02:10 9.6 °C 4.2 °C 1020.2 hPa Calm     69 % 0.0 mm 0.0 W/m2 CLR
02:15 9.4 °C 4.0 °C 1020.2 hPa Calm     69 % 0.0 mm 0.0 W/m2 CLR
02:20 9.3 °C 3.9 °C 1020.2 hPa Calm     69 % 0.0 mm 0.0 W/m2 CLR
02:25 9.1 °C 3.9 °C 1020.2 hPa Calm     70 % 0.0 mm 0.0 W/m2 CLR
02:30 8.9 °C 3.9 °C 1019.9 hPa Calm     71 % 0.0 mm 0.0 W/m2 CLR
02:35 8.7 °C 3.7 °C 1019.9 hPa Calm     71 % 0.0 mm 0.0 W/m2 CLR
02:40 8.4 °C 3.7 °C 1019.9 hPa Calm     72 % 0.0 mm 0.0 W/m2 CLR
02:45 8.3 °C 3.6 °C 1019.9 hPa Calm     72 % 0.0 mm 0.0 W/m2 CLR
02:50 8.3 °C 3.6 °C 1019.9 hPa Calm     72 % 0.0 mm 0.0 W/m2 CLR
02:55 8.4 °C 3.6 °C 1019.9 hPa Calm     72 % 0.0 mm 0.0 W/m2 CLR
03:00 8.3 °C 3.6 °C 1019.9 hPa Calm     72 % 0.0 mm 0.0 W/m2 CLR
03:05 8.2 °C 3.4 °C 1019.9 hPa Calm     72 % 0.0 mm 0.0 W/m2 CLR
03:10 8.0 °C 3.4 °C 1019.9 hPa Calm     73 % 0.0 mm 0.0 W/m2 CLR
03:20 7.9 °C 3.4 °C 1019.5 hPa Calm     73 % 0.0 mm 0.0 W/m2 CLR
03:25 7.9 °C 3.3 °C 1019.5 hPa Calm     73 % 0.0 mm 0.0 W/m2 CLR
03:30 7.8 °C 3.3 °C 1019.5 hPa Calm     73 % 0.0 mm 0.0 W/m2 CLR
03:35 7.7 °C 3.4 °C 1019.5 hPa Calm     74 % 0.0 mm 0.0 W/m2 CLR
03:40 7.6 °C 3.3 °C 1019.5 hPa Calm     74 % 0.0 mm 0.0 W/m2 CLR
03:45 7.6 °C 3.4 °C 1019.5 hPa Calm     75 % 0.0 mm 0.0 W/m2 CLR
03:50 7.6 °C 3.2 °C 1019.5 hPa Calm     74 % 0.0 mm 0.0 W/m2 CLR
03:55 7.6 °C 3.3 °C 1019.5 hPa Calm     74 % 0.0 mm 0.0 W/m2 CLR
04:00 7.6 °C 3.3 °C 1019.5 hPa Calm     74 % 0.0 mm 0.0 W/m2 CLR
04:05 7.6 °C 3.3 °C 1019.5 hPa Calm     74 % 0.0 mm 0.0 W/m2 CLR
04:10 7.7 °C 3.3 °C 1019.5 hPa Calm     74 % 0.0 mm 0.0 W/m2 CLR
04:15 7.7 °C 3.2 °C 1019.5 hPa Calm     73 % 0.0 mm 0.0 W/m2 CLR
04:20 7.6 °C 3.3 °C 1019.5 hPa Calm     74 % 0.0 mm 0.0 W/m2 CLR
04:25 7.5 °C 3.2 °C 1019.5 hPa Calm     74 % 0.0 mm 0.0 W/m2 CLR
04:30 7.4 °C 3.2 °C 1019.2 hPa Calm     75 % 0.0 mm 0.0 W/m2 CLR
04:35 7.3 °C 3.1 °C 1019.2 hPa Calm     75 % 0.0 mm 0.0 W/m2 CLR
04:40 7.1 °C 3.0 °C 1019.2 hPa Calm     75 % 0.0 mm 0.0 W/m2 CLR
04:45 7.1 °C 3.1 °C 1019.2 hPa Calm     76 % 0.0 mm 0.0 W/m2 CLR
04:50 7.0 °C 3.1 °C 1019.2 hPa Calm     76 % 0.0 mm 0.0 W/m2 CLR
04:55 7.0 °C 3.1 °C 1019.2 hPa Calm     76 % 0.0 mm 0.0 W/m2 CLR
05:00 7.0 °C 2.9 °C 1019.2 hPa Calm     75 % 0.0 mm 0.0 W/m2 CLR
05:05 6.8 °C 2.9 °C 1019.2 hPa Calm     76 % 0.0 mm 0.0 W/m2 CLR
05:10 6.8 °C 3.0 °C 1019.2 hPa Calm     77 % 0.0 mm 0.0 W/m2 CLR
05:15 6.8 °C 3.1 °C 1019.2 hPa Calm     77 % 0.0 mm 0.0 W/m2 CLR
05:20 6.8 °C 3.0 °C 1019.2 hPa Calm     77 % 0.0 mm 0.0 W/m2 CLR
05:25 6.8 °C 3.0 °C 1019.2 hPa Calm     77 % 0.0 mm 0.0 W/m2 CLR
05:30 6.8 °C 3.0 °C 1019.2 hPa Calm     77 % 0.0 mm 0.0 W/m2 CLR
05:35 6.7 °C 2.9 °C 1019.2 hPa Calm     77 % 0.0 mm 0.0 W/m2 CLR
05:40 6.7 °C 2.9 °C 1019.2 hPa Calm     77 % 0.0 mm 0.0 W/m2 CLR
05:45 6.6 °C 3.0 °C 1019.2 hPa Calm     78 % 0.0 mm 0.0 W/m2 CLR
05:50 6.5 °C 2.9 °C 1019.2 hPa Calm     78 % 0.0 mm 0.0 W/m2 CLR
05:55 6.4 °C 2.9 °C 1019.2 hPa Calm     78 % 0.0 mm 0.0 W/m2 CLR
06:00 6.3 °C 2.8 °C 1019.2 hPa Calm     78 % 0.0 mm 0.0 W/m2 CLR
06:05 6.3 °C 2.9 °C 1019.2 hPa Calm     79 % 0.0 mm 0.0 W/m2 CLR
06:10 6.2 °C 2.8 °C 1019.2 hPa Calm     79 % 0.0 mm 0.0 W/m2 CLR
06:15 6.2 °C 2.8 °C 1019.2 hPa Calm     79 % 0.0 mm 0.0 W/m2 CLR
06:20 6.1 °C 2.7 °C 1019.2 hPa Calm     79 % 0.0 mm 0.0 W/m2 CLR
06:25 5.9 °C 2.8 °C 1019.2 hPa Calm     80 % 0.0 mm 0.0 W/m2 CLR
06:30 5.9 °C 2.7 °C 1019.2 hPa Calm     80 % 0.0 mm 0.0 W/m2 CLR
06:35 5.9 °C 2.7 °C 1019.2 hPa Calm     80 % 0.0 mm 0.0 W/m2 CLR
06:42 5.8 °C 2.6 °C 1019.2 hPa Calm     80 % 0.0 mm 0.0 W/m2 CLR
06:47 5.6 °C 2.4 °C 1019.2 hPa Calm     80 % 0.0 mm 0.0 W/m2 CLR
06:52 5.6 °C 2.6 °C 1019.2 hPa SW 5.6 km/h 5.6 km/h 81 % 0.0 mm 0.0 W/m2 CLR
06:57 5.6 °C 2.6 °C 1019.2 hPa Calm     81 % 0.0 mm 0.0 W/m2 CLR
07:02 5.7 °C 2.7 °C 1019.2 hPa Calm   1.9 km/h 81 % 0.0 mm 0.0 W/m2 CLR
07:07 5.7 °C 2.7 °C 1019.2 hPa Calm     81 % 0.0 mm 0.0 W/m2 CLR
07:12 5.8 °C 2.8 °C 1019.2 hPa Calm     81 % 0.0 mm 0.0 W/m2 OVC
07:17 5.7 °C 2.7 °C 1019.5 hPa Calm     81 % 0.0 mm 5.0 W/m2 OVC
07:22 5.8 °C 2.8 °C 1019.5 hPa Calm     81 % 0.0 mm 7.0 W/m2 OVC
07:27 5.9 °C 2.7 °C 1019.5 hPa Calm     80 % 0.0 mm 11.0 W/m2 BKN
07:32 5.9 °C 2.7 °C 1019.5 hPa Calm     80 % 0.0 mm 14.0 W/m2 BKN
07:37 6.0 °C 2.8 °C 1019.5 hPa SW 4.8 km/h 4.8 km/h 80 % 0.0 mm 18.0 W/m2 BKN
07:42 6.0 °C 2.6 °C 1019.5 hPa Calm     79 % 0.0 mm 21.0 W/m2 BKN
07:47 6.0 °C 2.8 °C 1019.5 hPa Calm     80 % 0.0 mm 26.0 W/m2 BKN
07:52 6.1 °C 2.9 °C 1019.9 hPa Calm     80 % 0.0 mm 33.0 W/m2 BKN
07:57 6.3 °C 3.1 °C 1019.9 hPa Calm     80 % 0.0 mm 46.0 W/m2 BKN
08:02 6.6 °C 3.4 °C 1019.9 hPa Calm     80 % 0.0 mm 51.0 W/m2 SCT
08:07 6.9 °C 3.6 °C 1019.9 hPa Calm     79 % 0.0 mm 60.0 W/m2 SCT
08:12 7.4 °C 3.8 °C 1019.9 hPa Calm     78 % 0.0 mm 69.0 W/m2 FEW
08:17 7.8 °C 3.8 °C 1019.9 hPa Calm     76 % 0.0 mm 97.0 W/m2 CLR
08:22 7.9 °C 3.9 °C 1019.9 hPa Calm     76 % 0.0 mm 113.0 W/m2 CLR
08:27 8.1 °C 3.9 °C 1019.9 hPa Calm     75 % 0.0 mm 128.0 W/m2 CLR
08:32 8.4 °C 4.0 °C 1019.9 hPa Calm     74 % 0.0 mm 144.0 W/m2 CLR
08:37 8.9 °C 4.1 °C 1019.9 hPa Calm     72 % 0.0 mm 167.0 W/m2 CLR
08:42 9.2 °C 4.2 °C 1019.9 hPa Calm     71 % 0.0 mm 185.0 W/m2 CLR
08:47 9.5 °C 4.3 °C 1019.9 hPa Calm     70 % 0.0 mm 204.0 W/m2 CLR
08:52 10.1 °C 4.6 °C 1019.9 hPa Calm     69 % 0.0 mm 220.0 W/m2 CLR
08:57 10.5 °C 4.6 °C 1019.9 hPa Calm     67 % 0.0 mm 237.0 W/m2 CLR
09:02 10.8 °C 4.7 °C 1019.9 hPa Calm     66 % 0.0 mm 114.0 W/m2 CLR
09:07 11.1 °C 4.9 °C 1019.9 hPa Calm     66 % 0.0 mm 148.0 W/m2 CLR
09:12 11.4 °C 5.1 °C 1019.5 hPa Calm     65 % 0.0 mm 290.0 W/m2 CLR
09:17 11.9 °C 5.1 °C 1019.5 hPa Calm     63 % 0.0 mm 308.0 W/m2 CLR
09:22 12.3 °C 5.4 °C 1019.5 hPa Calm     63 % 0.0 mm 323.0 W/m2 CLR
09:27 12.6 °C 5.5 °C 1019.5 hPa Calm     62 % 0.0 mm 343.0 W/m2 CLR
09:32 12.9 °C 6.1 °C 1019.5 hPa Calm     63 % 0.0 mm 329.0 W/m2 CLR
09:37 13.3 °C 6.2 °C 1019.5 hPa Calm     62 % 0.0 mm 373.0 W/m2 CLR
09:42 13.7 °C 6.3 °C 1019.5 hPa Calm     61 % 0.0 mm 390.0 W/m2 CLR
09:47 14.3 °C 6.6 °C 1019.5 hPa Calm     60 % 0.0 mm 410.0 W/m2 CLR
09:52 14.8 °C 6.4 °C 1019.5 hPa Calm     57 % 0.0 mm 425.0 W/m2 CLR
09:57 15.6 °C 6.1 °C 1019.5 hPa Calm     53 % 0.0 mm 443.0 W/m2 CLR
10:02 16.1 °C 5.9 °C 1019.5 hPa Calm     51 % 0.0 mm 462.0 W/m2 CLR
10:07 16.3 °C 6.2 °C 1019.2 hPa Calm     51 % 0.0 mm 490.0 W/m2 CLR
10:12 16.8 °C 6.3 °C 1019.2 hPa East 3.7 km/h 3.7 km/h 50 % 0.0 mm 520.0 W/m2 CLR
10:17 17.3 °C 5.9 °C 1019.5 hPa ENE 3.7 km/h 3.7 km/h 47 % 0.0 mm 550.0 W/m2 CLR
10:22 17.6 °C 5.5 °C 1019.2 hPa Calm     45 % 0.0 mm 566.0 W/m2 CLR
10:27 17.8 °C 5.4 °C 1019.2 hPa ENE 5.6 km/h 5.6 km/h 44 % 0.0 mm 403.0 W/m2 CLR
10:32 17.9 °C 5.2 °C 1019.2 hPa ENE 11.1 km/h 11.1 km/h 43 % 0.0 mm 519.0 W/m2 CLR
10:37 17.9 °C 5.2 °C 1019.2 hPa ENE 5.6 km/h 5.6 km/h 43 % 0.0 mm 329.0 W/m2 CLR
10:42 18.0 °C 5.6 °C 1019.2 hPa East 5.6 km/h 5.6 km/h 44 % 0.0 mm 513.0 W/m2 CLR
10:47 18.2 °C 5.1 °C 1019.2 hPa ENE 5.6 km/h 5.6 km/h 42 % 0.0 mm 640.0 W/m2 CLR
10:52 18.3 °C 5.2 °C 1019.2 hPa ENE 13.0 km/h 13.0 km/h 42 % 0.0 mm 707.0 W/m2 CLR
10:57 18.5 °C 5.7 °C 1019.2 hPa ENE 9.7 km/h 9.7 km/h 43 % 0.0 mm 749.0 W/m2 CLR
11:02 18.6 °C 5.4 °C 1019.2 hPa NE 9.3 km/h 9.3 km/h 42 % 0.0 mm 489.0 W/m2 CLR
11:07 18.3 °C 5.2 °C 1019.2 hPa ENE 7.4 km/h 7.4 km/h 42 % 0.0 mm 489.0 W/m2 CLR
11:12 18.2 °C 5.8 °C 1019.2 hPa NE 13.0 km/h 13.0 km/h 44 % 0.0 mm 267.0 W/m2 CLR
11:17 18.0 °C 5.6 °C 1019.2 hPa ENE 7.4 km/h 7.4 km/h 44 % 0.0 mm 211.0 W/m2 CLR
11:22 17.8 °C 5.7 °C 1019.2 hPa East 5.6 km/h 5.6 km/h 45 % 0.0 mm 290.0 W/m2 CLR
11:27 18.2 °C 6.1 °C 1019.2 hPa East 5.6 km/h 5.6 km/h 45 % 0.0 mm 772.0 W/m2 CLR
11:32 18.9 °C 6.1 °C 1019.2 hPa ESE 6.4 km/h 6.4 km/h 43 % 0.0 mm 816.0 W/m2 CLR
11:37 19.2 °C 6.3 °C 1019.2 hPa ENE 5.6 km/h 5.6 km/h 43 % 0.0 mm 747.0 W/m2 CLR
11:42 19.1 °C 5.9 °C 1019.2 hPa East 5.6 km/h 5.6 km/h 42 % 0.0 mm 450.0 W/m2 CLR
11:47 18.9 °C 6.1 °C 1019.2 hPa ENE 9.3 km/h 9.3 km/h 43 % 0.0 mm 346.0 W/m2 CLR
11:52 18.9 °C 6.1 °C 1019.2 hPa ENE 4.8 km/h 4.8 km/h 43 % 0.0 mm 308.0 W/m2 CLR
11:57 19.2 °C 6.3 °C 1019.2 hPa ESE 9.3 km/h 9.3 km/h 43 % 0.0 mm 861.0 W/m2 CLR
12:02 19.4 °C 6.1 °C 1019.2 hPa Calm     42 % 0.0 mm 861.0 W/m2 CLR
12:07 19.5 °C 5.9 °C 1019.2 hPa ESE 5.6 km/h 5.6 km/h 41 % 0.0 mm 835.0 W/m2 CLR
12:12 19.6 °C 5.9 °C 1018.8 hPa ENE 7.4 km/h 7.4 km/h 41 % 0.0 mm 835.0 W/m2 CLR
12:17 19.7 °C 5.7 °C 1018.8 hPa East 9.3 km/h 9.3 km/h 40 % 0.0 mm 1000.0 W/m2 CLR
12:22 19.8 °C 6.2 °C 1018.8 hPa ENE 9.3 km/h 9.3 km/h 41 % 0.0 mm 548.0 W/m2 CLR
12:27 19.9 °C 5.9 °C 1018.8 hPa East 5.6 km/h 5.6 km/h 40 % 0.0 mm 571.0 W/m2 CLR
12:32 19.9 °C 6.3 °C 1018.5 hPa NE 11.1 km/h 11.1 km/h 41 % 0.0 mm 645.0 W/m2 CLR
12:37 20.2 °C 5.8 °C 1018.5 hPa ENE 7.4 km/h 7.4 km/h 39 % 0.0 mm 496.0 W/m2 CLR
12:42 20.2 °C 6.1 °C 1018.5 hPa Calm     40 % 0.0 mm 916.0 W/m2 CLR
12:47 20.3 °C 5.9 °C 1018.5 hPa NE 9.3 km/h 9.3 km/h 39 % 0.0 mm 893.0 W/m2 CLR
12:52 20.7 °C 5.5 °C 1018.5 hPa NE 5.6 km/h 5.6 km/h 37 % 0.0 mm 874.0 W/m2 CLR
12:57 21.0 °C 5.7 °C 1018.2 hPa NE 11.1 km/h 11.1 km/h 37 % 0.0 mm 875.0 W/m2 CLR
13:02 21.2 °C 5.1 °C 1018.2 hPa NE 11.1 km/h 11.1 km/h 35 % 0.0 mm 868.0 W/m2 CLR
13:07 21.2 °C 5.2 °C 1018.2 hPa SE 3.7 km/h 3.7 km/h 35 % 0.0 mm 865.0 W/m2 CLR
13:12 21.2 °C 4.7 °C 1018.2 hPa Calm   0.3 km/h 34 % 0.0 mm 867.0 W/m2 CLR
13:17 21.4 °C 4.9 °C 1018.2 hPa ENE 9.3 km/h 9.3 km/h 34 % 0.0 mm 867.0 W/m2 CLR
13:22 21.6 °C 4.6 °C 1017.8 hPa Calm     33 % 0.0 mm 868.0 W/m2 CLR
13:27 21.8 °C 4.8 °C 1017.8 hPa Calm     33 % 0.0 mm 872.0 W/m2 CLR
13:32 22.0 °C 4.1 °C 1017.8 hPa ENE 9.3 km/h 9.3 km/h 31 % 0.0 mm 874.0 W/m2 CLR
13:37 22.1 °C 4.1 °C 1017.8 hPa NNE 3.7 km/h 3.7 km/h 31 % 0.0 mm 875.0 W/m2 CLR
13:42 22.2 °C 4.2 °C 1017.8 hPa North 9.3 km/h   31 % 0.0 mm 877.0 W/m2 CLR
13:47 22.2 °C 4.7 °C 1017.5 hPa Calm     32 % 0.0 mm 879.0 W/m2 CLR
13:52 22.6 °C 4.6 °C 1017.5 hPa North 9.3 km/h 9.3 km/h 31 % 0.0 mm 881.0 W/m2 CLR
13:57 22.6 °C 5.0 °C 1017.5 hPa ENE 7.4 km/h 7.4 km/h 32 % 0.0 mm 881.0 W/m2 CLR
14:02 22.6 °C 4.6 °C 1017.2 hPa North 9.3 km/h   31 % 0.0 mm 882.0 W/m2 CLR
14:08 22.7 °C 5.2 °C 1017.2 hPa Calm     32 % 0.0 mm 881.0 W/m2 CLR
14:13 23.0 °C 4.9 °C 1017.2 hPa NE 13.0 km/h 13.0 km/h 31 % 0.0 mm 881.0 W/m2 CLR
14:18 23.1 °C 4.6 °C 1017.2 hPa NNE 11.1 km/h 11.1 km/h 30 % 0.0 mm 877.0 W/m2 CLR
14:23 23.1 °C 4.6 °C 1016.8 hPa NNE 14.8 km/h 14.8 km/h 30 % 0.0 mm 877.0 W/m2 CLR
14:28 23.4 °C 4.3 °C 1016.8 hPa NE 14.8 km/h 14.8 km/h 29 % 0.0 mm 875.0 W/m2 CLR
14:33 23.7 °C 4.1 °C 1016.8 hPa NNE 8.0 km/h 8.0 km/h 28 % 0.0 mm 872.0 W/m2 CLR
14:38 23.6 °C 4.0 °C 1016.8 hPa ENE 11.1 km/h 11.1 km/h 28 % 0.0 mm 870.0 W/m2 CLR
14:43 23.6 °C 4.5 °C 1016.5 hPa Calm     29 % 0.0 mm 865.0 W/m2 CLR
14:53 24.1 °C 4.9 °C 1016.5 hPa NNE 7.4 km/h 7.4 km/h 29 % 0.0 mm 854.0 W/m2 CLR
14:58 24.3 °C 4.7 °C 1016.5 hPa NE 14.8 km/h 14.8 km/h 28 % 0.0 mm 851.0 W/m2 CLR
15:03 24.4 °C 5.2 °C 1016.5 hPa NNE 5.6 km/h 5.6 km/h 29 % 0.0 mm 844.0 W/m2 CLR
15:08 24.8 °C 5.6 °C 1016.1 hPa North 11.1 km/h 11.1 km/h 29 % 0.0 mm 842.0 W/m2 CLR
15:13 25.0 °C 5.2 °C 1016.1 hPa NE 5.6 km/h   28 % 0.0 mm 833.0 W/m2 CLR
15:18 24.9 °C 5.7 °C 1016.1 hPa NE 7.4 km/h 7.4 km/h 29 % 0.0 mm 830.0 W/m2 CLR
15:23 25.0 °C 5.2 °C 1016.1 hPa East 13.0 km/h 13.0 km/h 28 % 0.0 mm 823.0 W/m2 CLR
15:28 24.7 °C 5.5 °C 1015.8 hPa Calm     29 % 0.0 mm 817.0 W/m2 CLR
15:33 25.1 °C 5.8 °C 1015.8 hPa North 11.1 km/h 11.1 km/h 29 % 0.0 mm 807.0 W/m2 CLR
15:38 25.3 °C 7.0 °C 1015.8 hPa Calm     31 % 0.0 mm 800.0 W/m2 CLR
15:43 25.4 °C 7.6 °C 1015.8 hPa NNE 6.4 km/h 6.4 km/h 32 % 0.0 mm 788.0 W/m2 CLR
15:48 25.3 °C 7.9 °C 1015.8 hPa East 14.8 km/h 14.8 km/h 33 % 0.0 mm 780.0 W/m2 CLR
15:53 25.0 °C 8.1 °C 1015.5 hPa SE 9.3 km/h 9.3 km/h 34 % 0.0 mm 768.0 W/m2 CLR
15:58 24.8 °C 8.3 °C 1015.5 hPa North 9.3 km/h 9.3 km/h 35 % 0.0 mm 763.0 W/m2 CLR
16:03 25.1 °C 8.5 °C 1015.5 hPa ESE 11.3 km/h 11.3 km/h 35 % 0.0 mm 754.0 W/m2 CLR
16:08 25.1 °C 8.9 °C 1015.5 hPa SE 11.1 km/h 11.1 km/h 36 % 0.0 mm 744.0 W/m2 CLR
16:13 25.2 °C 8.2 °C 1015.1 hPa East 7.4 km/h 7.4 km/h 34 % 0.0 mm 733.0 W/m2 CLR
16:18 25.2 °C 9.1 °C 1015.1 hPa East 11.1 km/h 11.1 km/h 36 % 0.0 mm 719.0 W/m2 CLR
16:23 25.1 °C 8.9 °C 1015.1 hPa ENE 5.6 km/h 5.6 km/h 36 % 0.0 mm 708.0 W/m2 CLR
16:28 25.1 °C 8.5 °C 1015.1 hPa NE 11.1 km/h 11.1 km/h 35 % 0.0 mm 696.0 W/m2 CLR
16:33 25.3 °C 8.3 °C 1014.8 hPa NNE 7.4 km/h 7.4 km/h 34 % 0.0 mm 691.0 W/m2 CLR
16:38 25.6 °C 8.9 °C 1014.8 hPa NE 14.5 km/h 14.5 km/h 35 % 0.0 mm 675.0 W/m2 CLR
16:43 25.6 °C 8.9 °C 1014.8 hPa ENE 11.3 km/h 11.3 km/h 35 % 0.0 mm 664.0 W/m2 CLR
16:48 25.7 °C 9.5 °C 1014.4 hPa ENE 9.3 km/h 9.3 km/h 36 % 0.0 mm 647.0 W/m2 CLR
16:53 25.4 °C 9.7 °C 1014.4 hPa NE 7.4 km/h 7.4 km/h 37 % 0.0 mm 636.0 W/m2 CLR
16:58 25.6 °C 9.4 °C 1014.4 hPa ENE 9.3 km/h 9.3 km/h 36 % 0.0 mm 626.0 W/m2 CLR
17:03 25.7 °C 8.6 °C 1014.4 hPa ENE 12.9 km/h 12.9 km/h 34 % 0.0 mm 613.0 W/m2 CLR
17:08 25.3 °C 8.8 °C 1014.4 hPa East 6.4 km/h 6.4 km/h 35 % 0.0 mm 601.0 W/m2 CLR
17:13 25.2 °C 8.6 °C 1014.4 hPa East 7.4 km/h 7.4 km/h 35 % 0.0 mm 585.0 W/m2 CLR
17:18 25.3 °C 8.8 °C 1014.1 hPa NE 11.3 km/h 11.3 km/h 35 % 0.0 mm 573.0 W/m2 CLR
17:23 25.5 °C 8.9 °C 1014.1 hPa East 14.8 km/h 14.8 km/h 35 % 0.0 mm 557.0 W/m2 CLR
17:28 25.6 °C 8.9 °C 1014.1 hPa NE 9.7 km/h 9.7 km/h 35 % 0.0 mm 545.0 W/m2 CLR
17:33 25.8 °C 8.7 °C 1014.1 hPa ENE 9.3 km/h 9.3 km/h 34 % 0.0 mm 529.0 W/m2 CLR
17:39 25.8 °C 9.2 °C 1014.1 hPa NE 4.8 km/h 4.8 km/h 35 % 0.0 mm 515.0 W/m2 CLR
17:44 25.8 °C 9.2 °C 1014.1 hPa NNE 3.7 km/h 3.7 km/h 35 % 0.0 mm 503.0 W/m2 CLR
17:49 25.8 °C 9.2 °C 1014.1 hPa NE 5.6 km/h 5.6 km/h 35 % 0.0 mm 483.0 W/m2 CLR
17:54 25.7 °C 9.1 °C 1014.1 hPa ENE 5.6 km/h 5.6 km/h 35 % 0.0 mm 469.0 W/m2 CLR
17:59 25.7 °C 9.9 °C 1014.1 hPa NNE 1.6 km/h 1.6 km/h 37 % 0.0 mm 450.0 W/m2 CLR
18:04 25.8 °C 10.4 °C 1014.1 hPa Calm     38 % 0.0 mm 431.0 W/m2 CLR
18:09 25.6 °C 10.2 °C 1014.1 hPa ENE 13.0 km/h 13.0 km/h 38 % 0.0 mm 415.0 W/m2 CLR
18:14 25.1 °C 10.2 °C 1014.1 hPa ESE 8.0 km/h 8.0 km/h 39 % 0.0 mm 397.0 W/m2 CLR
18:19 24.8 °C 9.9 °C 1014.1 hPa Calm     39 % 0.0 mm 378.0 W/m2 CLR
18:24 24.8 °C 10.3 °C 1014.1 hPa Calm     40 % 0.0 mm 360.0 W/m2 CLR
18:34 25.1 °C 10.2 °C 1014.1 hPa Calm     39 % 0.0 mm 332.0 W/m2 CLR
18:39 25.5 °C 10.1 °C 1014.1 hPa ENE 3.7 km/h 3.7 km/h 38 % 0.0 mm 316.0 W/m2 CLR
18:44 25.6 °C 10.9 °C 1014.1 hPa Calm   0.3 km/h 40 % 0.0 mm 297.0 W/m2 CLR
18:49 25.3 °C 10.7 °C 1014.1 hPa Calm     40 % 0.0 mm 279.0 W/m2 CLR
18:54 25.1 °C 10.5 °C 1014.1 hPa Calm     40 % 0.0 mm 260.0 W/m2 CLR
18:59 25.1 °C 10.6 °C 1014.1 hPa Calm     40 % 0.0 mm 246.0 W/m2 CLR
19:04 25.0 °C 11.2 °C 1014.1 hPa Calm   1.3 km/h 42 % 0.0 mm 225.0 W/m2 CLR
19:09 24.8 °C 11.7 °C 1014.1 hPa ENE 5.6 km/h 5.6 km/h 44 % 0.0 mm 206.0 W/m2 CLR
19:14 24.6 °C 11.8 °C 1014.1 hPa NE 5.6 km/h 5.6 km/h 45 % 0.0 mm 192.0 W/m2 CLR
19:19 24.4 °C 11.7 °C 1014.1 hPa ENE 3.7 km/h   45 % 0.0 mm 176.0 W/m2 CLR
19:24 24.3 °C 11.9 °C 1014.1 hPa East 5.6 km/h 5.6 km/h 46 % 0.0 mm 153.0 W/m2 CLR
19:29 24.1 °C 12.4 °C 1014.1 hPa ESE 11.1 km/h 11.1 km/h 48 % 0.0 mm 137.0 W/m2 CLR
19:34 23.8 °C 12.4 °C 1014.1 hPa East 1.9 km/h   49 % 0.0 mm 121.0 W/m2 CLR
19:39 23.6 °C 12.6 °C 1014.1 hPa East 11.1 km/h 11.1 km/h 50 % 0.0 mm 107.0 W/m2 CLR
19:44 23.3 °C 12.6 °C 1014.1 hPa ENE 7.4 km/h 7.4 km/h 51 % 0.0 mm 90.0 W/m2 CLR
19:49 23.1 °C 12.7 °C 1014.1 hPa ENE 7.4 km/h 7.4 km/h 52 % 0.0 mm 77.0 W/m2 FEW
19:54 23.0 °C 12.6 °C 1014.1 hPa Calm     52 % 0.0 mm 65.0 W/m2 SCT
19:59 22.9 °C 12.5 °C 1014.1 hPa ENE 3.7 km/h 3.7 km/h 52 % 0.0 mm 51.0 W/m2 SCT
20:04 22.7 °C 12.3 °C 1014.4 hPa East 5.6 km/h 5.6 km/h 52 % 0.0 mm 40.0 W/m2 BKN
20:09 22.6 °C 13.1 °C 1014.4 hPa East 7.4 km/h 7.4 km/h 55 % 0.0 mm 32.0 W/m2 BKN
20:14 22.2 °C 12.9 °C 1014.4 hPa ESE 11.3 km/h 11.3 km/h 56 % 0.0 mm 25.0 W/m2 BKN
20:19 21.8 °C 13.2 °C 1014.4 hPa East 5.6 km/h 5.6 km/h 58 % 0.0 mm 21.0 W/m2 BKN
20:24 21.6 °C 13.0 °C 1014.4 hPa Calm     58 % 0.0 mm 16.0 W/m2 BKN
20:29 21.4 °C 12.8 °C 1014.4 hPa Calm     58 % 0.0 mm 12.0 W/m2 BKN
20:34 21.3 °C 13.0 °C 1014.4 hPa Calm     59 % 0.0 mm 9.0 W/m2 BKN
20:39 21.1 °C 13.1 °C 1014.4 hPa Calm     60 % 0.0 mm 5.0 W/m2 OVC
20:44 20.9 °C 12.9 °C 1014.8 hPa Calm     60 % 0.0 mm 0.0 W/m2 OVC
20:49 20.8 °C 13.0 °C 1014.8 hPa Calm     61 % 0.0 mm 0.0 W/m2 OVC
20:54 20.6 °C 13.0 °C 1014.8 hPa Calm     62 % 0.0 mm 0.0 W/m2 CLR
20:59 20.4 °C 12.9 °C 1015.1 hPa Calm     62 % 0.0 mm 0.0 W/m2 CLR
21:04 20.2 °C 12.9 °C 1015.1 hPa Calm     63 % 0.0 mm 0.0 W/m2 CLR
21:09 20.0 °C 12.7 °C 1015.1 hPa Calm     63 % 0.0 mm 0.0 W/m2 CLR
21:14 19.9 °C 12.6 °C 1015.1 hPa Calm     63 % 0.0 mm 0.0 W/m2 CLR
21:15 19.8 °C 12.6 °C 1015.1 hPa Calm     63 % 0.0 mm 0.0 W/m2 CLR
21:20 19.7 °C 12.7 °C 1015.1 hPa Calm     64 % 0.0 mm 0.0 W/m2 CLR
21:25 19.6 °C 12.6 °C 1015.1 hPa Calm     64 % 0.0 mm 0.0 W/m2 CLR
21:30 19.4 °C 12.9 °C 1015.1 hPa Calm     66 % 0.0 mm 0.0 W/m2 CLR
21:35 19.2 °C 12.7 °C 1015.5 hPa Calm     66 % 0.0 mm 0.0 W/m2 CLR
21:40 18.9 °C 12.6 °C 1015.5 hPa Calm     67 % 0.0 mm 0.0 W/m2 CLR
21:45 18.7 °C 12.7 °C 1015.5 hPa Calm     68 % 0.0 mm 0.0 W/m2 CLR
21:50 18.5 °C 12.7 °C 1015.5 hPa Calm     69 % 0.0 mm 0.0 W/m2 CLR
21:55 18.3 °C 12.3 °C 1015.5 hPa Calm     68 % 0.0 mm 0.0 W/m2 CLR
22:00 18.0 °C 12.2 °C 1015.5 hPa Calm     69 % 0.0 mm 0.0 W/m2 CLR
22:05 17.7 °C 12.1 °C 1015.5 hPa Calm     70 % 0.0 mm 0.0 W/m2 CLR
22:10 17.5 °C 12.4 °C 1015.8 hPa Calm     72 % 0.0 mm 0.0 W/m2 CLR
22:15 17.3 °C 12.2 °C 1015.8 hPa Calm     72 % 0.0 mm 0.0 W/m2 CLR
22:20 16.9 °C 12.1 °C 1015.8 hPa Calm     73 % 0.0 mm 0.0 W/m2 CLR
22:25 16.7 °C 11.8 °C 1015.8 hPa Calm     73 % 0.0 mm 0.0 W/m2 CLR
22:30 16.5 °C 11.7 °C 1015.8 hPa Calm     73 % 0.0 mm 0.0 W/m2 CLR
22:35 16.3 °C 11.5 °C 1015.8 hPa Calm     73 % 0.0 mm 0.0 W/m2 CLR
22:40 16.1 °C 11.5 °C 1015.8 hPa Calm     74 % 0.0 mm 0.0 W/m2 CLR
22:45 15.9 °C 11.3 °C 1015.8 hPa Calm     74 % 0.0 mm 0.0 W/m2 CLR
22:50 15.7 °C 11.1 °C 1016.1 hPa Calm     74 % 0.0 mm 0.0 W/m2 CLR
22:55 15.6 °C 11.2 °C 1016.1 hPa Calm     75 % 0.0 mm 0.0 W/m2 CLR
23:00 15.5 °C 11.1 °C 1016.1 hPa Calm     75 % 0.0 mm 0.0 W/m2 CLR
23:05 15.4 °C 11.0 °C 1016.1 hPa Calm     75 % 0.0 mm 0.0 W/m2 CLR
23:10 15.2 °C 10.8 °C 1016.1 hPa Calm     75 % 0.0 mm 0.0 W/m2 CLR
23:15 15.0 °C 10.6 °C 1016.1 hPa Calm     75 % 0.0 mm 0.0 W/m2 CLR
23:20 14.8 °C 10.7 °C 1016.1 hPa Calm     76 % 0.0 mm 0.0 W/m2 CLR
23:25 14.7 °C 10.5 °C 1016.1 hPa Calm     76 % 0.0 mm 0.0 W/m2 CLR
23:30 14.5 °C 10.5 °C 1016.1 hPa Calm     77 % 0.0 mm 0.0 W/m2 CLR
23:35 14.4 °C 10.4 °C 1016.1 hPa Calm     77 % 0.0 mm 0.0 W/m2 CLR
23:40 14.3 °C 10.3 °C 1016.1 hPa Calm     77 % 0.0 mm 0.0 W/m2 CLR
23:45 14.2 °C 10.2 °C 1016.1 hPa Calm     77 % 0.0 mm 0.0 W/m2 CLR
23:50 14.1 °C 10.1 °C 1016.1 hPa Calm     77 % 0.0 mm 0.0 W/m2 CLR
23:55 13.9 °C 9.9 °C 1016.1 hPa Calm     77 % 0.0 mm 0.0 W/m2 CLR
Lo Temps de Massalio
Compliments of Weather Underground - 1.25 mb